Showing default

COSMOS 2601, 67675

Orbit data source: Space-Track

COSMOS 2601, 67675 is a payload satellite owned by VVKO VKS (CIS) in SSO that was launched on Thu, 05 Feb 2026 UTC via a SOYUZ-2-1B launch vehicle from the Plesetsk Missile And Space Complex (PKMTR). Payload-class satellites include a variety of spacecraft equipped with specific instruments for various scientific and technological missions. These include communications satellites like Starlink; space stations such as the ISS; scientific satellites like the Hubble; Earth observation satellites from companies like Planet Labs, Umbra, and HawkEye 360; GPS; miniature CubeSats for education and research; and military/defense satellites.

Loading next visibility...
Identifier
67675, 2026-023B
Orbit
SSO
Country
Flag of CISCIS
Related business
Manufacturer
Unknown (RU)
Mission
Operational Defense Imaging
Bus & Motor
UNK, Unknown motor
Mass
~500 kg wet, ~500 kg dry
Launch date (UTC)
2026-02-05 (4 months ago)
Launch vehicle
SOYUZ-2-1B
Launch site
Plesetsk Missile And Space Complex (PKMTR)
Object type
Payload
Rocket body
Debris
Shape & HBR
Cyl + 2 Pan, 1.1 m
Radar Cross Section
3.727 m², Medium (>0.1 m² and < 1m²)

Expand to show TLE details & history
Last TLE update: 22 hours ago

TLE from 22 hours ago
0 COSMOS 2601
1 67675U 26023B   26170.94214103  .00009210  00000-0  36712-3 0  9998
2 67675  96.6243 232.1163 0018869 126.8140 233.4835 15.25221912 20432
Epoch: 2026-06-19T22:36Z
TLE epoch observation values (Epoch: 2026-06-19T22:36:40.984Z)
Latitude
-0.00001°
Longitude
-15.21835°
Altitude
500.967 km
Speed
7.61 km/s
True Right ascension
15h 28m 27s
True Declination
0° 00' 00"
Sunlit
Object was in full shadow at epoch
Visualization orbit readout
Latitude
Unknown
Longitude
Unknown
Altitude
Unknown
Speed
Unknown
Apparent Right ascension
Unknown
Apparent Declination
Unknown
Sunlit
N/A
Visualization observer readout
Local Sidereal Time
07:23:28
Azimuth
Unknown
Elevation
Unknown
Doppler factor
Unknown
Orbital elements
Apogee altitude
500 km
Perigee altitude
474.092 km
Semi-major axis
6,865.183 km
Eccentricity
0.00189
Inclination
96.6243°
RAAN
232.1163°
Arg. of periapsis
126.814°
True anomaly
233.30997°
Mean anomaly
233.4835°
Eccentric anomaly
233.39671°
Mean motion
3.81562 °/min
Orbital period
94.35 mins
BSTAR
0.00036712
Loading maneuver chart data...
Computing Atmospheric mass density...
Loading historical data...
Loading historical data...
Loading historical data...
Loading historical data...
Loading historical data...
Loading historical data...
Loading historical data...

Documentation

Showing up to 5 results
|